Flag for Germany Weather past 2 weeks in Gronau (Westfalen), North Rhine-Westphalia, Germany

Now
63 °F

Clear.


Feels Like: 63 °F
Forecast: 60 / 74 °F
Wind: 2 mph from East

Location: Twenthe

Current Time: Sep 17, 2014 at 12:12:51 AM

Latest Report: Sep 16, 2014 at 11:00 PM


Visibility: 7 mi

Pressure: 29.97 "Hg

Humidity: 84%

Dew point: 58 °F

Location of Gronau (Westfalen)Location

Historic Weather in Gronau (Westfalen) — Graph

°F

Gronau (Westfalen) temperature yesterday

Maximum temperature yesterday: 75 °F (at 3:00 PM)
Minimum temperature yesterday: 59 °F (at 8:00 AM)
Average temperature yesterday: 67 °F

Past Weeks' High & Low Weather Summary

 TemperatureHumidityPressure
High75 °F (Sep 5, 5:00 PM)100% (Sep 2, 12:00 AM)30.28 "Hg (Sep 2, 12:00 AM)
Low45 °F (Sep 2, 6:00 AM)53% (Sep 8, 4:00 PM)29.88 "Hg (Sep 6, 5:00 PM)
Average60 °F86%30.10 "Hg
* Reported Sep 1 10:00 PM — Sep 16 10:00 PM, Gronau (Westfalen), Weather by CustomWeather, © 2014

Note: Actual official high and low records may vary slightly from our data, if they occured in-between our weather recording intervals... More about our weather records

Advertising

Gronau (Westfalen) weather history for previous 24 hours

 ConditionsComfort  
Time TempWeatherWind HumidityBarometerVisibility
10:00 PM
Sep 16
65 °FPassing clouds.3 mph80%29.97 "Hg9 mi
9:00 PM65 °FPassing clouds.2 mph83%29.97 "Hg9 mi
8:00 PM68 °FPassing clouds.2 mph77%29.96 "Hg7 mi
7:00 PM71 °FLight rain. Overcast.2 mph75%29.95 "Hg7 mi
6:00 PM74 °FScattered clouds.2 mph71%29.95 "Hg7 mi
5:00 PM73 °FPartly sunny.2 mph66%29.96 "Hg12 mi
4:00 PM74 °FPassing clouds.5 mph62%29.96 "Hg11 mi
3:00 PM75 °FPassing clouds.5 mph63%29.98 "Hg7 mi
2:00 PM74 °FScattered clouds.3 mph68%29.98 "Hg6 mi
1:00 PM72 °FPartly sunny.3 mph70%30.00 "Hg5 mi
12:00 PM70 °FSunny.3 mph76%30.01 "Hg4 mi
11:00 AM68 °FFog.2 mph80%30.02 "Hg4 mi
10:00 AM65 °FFog.2 mph85%30.02 "Hg3 mi
9:00 AM63 °FFog.3 mph89%30.01 "Hg2 mi
8:00 AM59 °FFog.N/A98%30.01 "Hg1 mi
7:00 AM60 °FFog.1 mph98%30.01 "Hg1 mi
6:00 AM62 °FFog.2 mph93%30.01 "Hg2 mi
5:00 AM62 °FFog.2 mph94%30.01 "Hg2 mi
4:00 AM62 °FFog.1 mph96%30.02 "Hg2 mi
3:00 AM62 °FFog.1 mph95%30.02 "Hg2 mi
2:00 AM63 °FFog.1 mph95%30.02 "Hg2 mi
1:00 AM64 °FFog.2 mph92%30.03 "Hg2 mi
12:00 AM64 °FFog.2 mph92%30.03 "Hg2 mi
Weather by CustomWeather, © 2014

See weather overviewHow to use our weather pages